Piper Inness — WDC3984 — position and weather

sailwx.info

Track history (hours):
 
Tides and Currents Weather Stations Pressure Air Temp Water Temp Dewpoint Dewpoint Depression Visibility Wind Speed Wind Dir Waves Ship Positions

Piper Inness

Owner: Foss Maritime Co, Seattle, WA. More information available from US FCC via Universal Licensing System and Coast Guard Vessel Documentation Center.

Last reported at 2017-Nov-24 12:29 UTC. Time now 2017-Nov-24 12:53 UTC.
Position N 33°46' W 118°13'.

; draft 2 m.

Type: Other ship. MMSI: 367017440.

Date/timePositionNaut miles runAvg speedWind from/ knotsBaromVisibWave heightAir tempDewpointWater temp
2017-Nov-24 12:29N 33°46' W 118°13'0 0.0
2017-Nov-24 11:58N 33°46' W 118°13'0 0.0
2017-Nov-24 11:30N 33°46' W 118°13'0 0.0
2017-Nov-24 10:59N 33°46' W 118°13'0 0.0
2017-Nov-24 10:29N 33°46' W 118°13'0 0.0
2017-Nov-24 09:59N 33°46' W 118°13'0 0.0
2017-Nov-24 09:25N 33°46' W 118°13'0 0.0
2017-Nov-24 09:00N 33°46' W 118°13'0 0.0
2017-Nov-24 08:26N 33°46' W 118°13'2 3.4
2017-Nov-24 07:59N 33°45' W 118°13'714.1
2017-Nov-24 07:30N 33°39' W 118°09'917.3
2017-Nov-24 07:00N 33°31' W 118°04'2117.4
2017-Nov-24 05:47N 33°12' W 117°53'415.4
2017-Nov-24 05:30N 33°08' W 117°51'1 1.1
2017-Nov-24 05:00N 33°08' W 117°51'1 2.1
2017-Nov-24 04:29N 33°07' W 117°51'2 3.4
2017-Nov-24 04:00N 33°05' W 117°51'1 1.5
2017-Nov-24 03:31N 33°05' W 117°51'1 1.1
2017-Nov-24 03:00N 33°05' W 117°50'1 1.9
2017-Nov-24 02:30N 33°04' W 117°50'1 1.1
2017-Nov-24 02:00N 33°05' W 117°50'0 0.5
2017-Nov-24 01:30N 33°05' W 117°50'0 0.3
2017-Nov-24 01:00N 33°05' W 117°50'1 1.8
2017-Nov-24 00:30N 33°04' W 117°50'0 0.9
2017-Nov-24 00:00N 33°04' W 117°50'1 2.1
2017-Nov-23 23:30N 33°03' W 117°49'0 0.8
2017-Nov-23 23:00N 33°03' W 117°49'1 1.7
2017-Nov-23 22:26N 33°02' W 117°49'1 1.3
2017-Nov-23 22:00N 33°01' W 117°49'1 1.5
2017-Nov-23 21:29N 33°01' W 117°49'1 1.8
2017-Nov-23 21:00N 32°60' W 117°49'0 0.1
2017-Nov-23 20:29N 32°60' W 117°50'2 3.3
2017-Nov-23 20:00N 32°58' W 117°49'1 2.2
2017-Nov-23 19:30N 32°57' W 117°49'1 1.2
2017-Nov-23 19:00N 32°57' W 117°49'0 0.2
2017-Nov-23 18:30N 32°57' W 117°49'1 2.2
2017-Nov-23 18:00N 32°56' W 117°50'0 0.4
2017-Nov-23 17:28N 32°56' W 117°50'2 4.8
2017-Nov-23 16:57N 32°55' W 117°48'2 1.5
2017-Nov-23 15:22N 32°53' W 117°46'2 1.7
2017-Nov-23 14:19N 32°53' W 117°44'0 0.5
2017-Nov-23 13:59N 32°53' W 117°44'0 0.4
2017-Nov-23 13:25N 32°54' W 117°43'1 1.9
2017-Nov-23 13:00N 32°54' W 117°44'1 1.3
2017-Nov-23 12:30N 32°53' W 117°45'0 0.3
2017-Nov-23 12:00N 32°53' W 117°45'1 1.7
2017-Nov-23 11:30N 32°53' W 117°46'1 1.1
2017-Nov-23 11:00N 32°53' W 117°46'1 1.5
2017-Nov-23 10:30N 32°53' W 117°47'1 1.2
2017-Nov-23 10:00N 32°54' W 117°47'0 0.7
2017-Nov-23 09:30N 32°54' W 117°47'1 2.1
2017-Nov-23 09:00N 32°55' W 117°48'0 0.6
2017-Nov-23 08:30N 32°55' W 117°48'1 1.1
2017-Nov-23 08:00N 32°55' W 117°49'1 1.0
2017-Nov-23 07:30N 32°55' W 117°49'1 1.1
2017-Nov-23 07:00N 32°55' W 117°49'1 1.1
2017-Nov-23 06:30N 32°56' W 117°49'1 1.8
2017-Nov-23 06:00N 32°57' W 117°49'2 3.9
2017-Nov-23 05:30N 32°58' W 117°50'2 4.5
2017-Nov-23 05:00N 33°00' W 117°51'3 5.3
2017-Nov-23 04:30N 33°03' W 117°53'3 5.2
2017-Nov-23 04:00N 33°05' W 117°54'2 4.3
2017-Nov-23 03:30N 33°07' W 117°56'3 6.3
2017-Nov-23 03:00N 33°10' W 117°58'1 1.7
2017-Nov-23 02:30N 33°09' W 117°57'0 0.2
2017-Nov-23 02:00N 33°09' W 117°57'714.0
2017-Nov-23 01:30N 33°16' W 117°58'816.9
2017-Nov-23 01:00N 33°24' W 118°01'917.1
2017-Nov-23 00:30N 33°32' W 118°05'  
2017-Nov-20 00:30N 33°43' W 118°11'4 0.2
2017-Nov-19 07:34N 33°46' W 118°13'0 0.0
2017-Nov-19 07:30N 33°46' W 118°13'1 0.3
2017-Nov-19 05:33N 33°46' W 118°13'1110.4
2017-Nov-19 04:29N 33°36' W 118°08'2216.9
2017-Nov-19 03:09N 33°15' W 117°57'216.7
2017-Nov-19 03:01N 33°13' W 117°56'816.6
2017-Nov-19 02:30N 33°05' W 117°53'2 4.5
2017-Nov-19 02:00N 33°03' W 117°52'0 0.7
2017-Nov-19 01:30N 33°03' W 117°52'0 0.9
2017-Nov-19 01:00N 33°04' W 117°52'0 0.5
2017-Nov-19 00:30N 33°03' W 117°52'1 2.5
2017-Nov-19 00:00N 33°02' W 117°52'1 1.8
2017-Nov-18 23:30N 33°01' W 117°51'1 2.7
2017-Nov-18 23:00N 33°00' W 117°51'0 0.1
2017-Nov-18 22:30N 33°00' W 117°51'0 0.5
2017-Nov-18 22:00N 33°00' W 117°51'0 0.5
2017-Nov-18 21:30N 33°00' W 117°51'1 1.8
2017-Nov-18 21:00N 32°59' W 117°50'1 1.1
2017-Nov-18 20:30N 32°59' W 117°50'1 1.5
2017-Nov-18 20:00N 32°59' W 117°50'1 1.4
2017-Nov-18 19:25N 32°58' W 117°49'0 0.3
2017-Nov-18 19:00N 32°58' W 117°49'1 2.1
2017-Nov-18 18:27N 32°57' W 117°49'1 1.3
2017-Nov-18 17:46N 32°56' W 117°49'0 0.5
2017-Nov-18 17:29N 32°56' W 117°49'1 1.5
2017-Nov-18 16:48N 32°56' W 117°48'0 1.0
2017-Nov-18 16:26N 32°56' W 117°48'1 3.4
2017-Nov-18 16:00N 32°54' W 117°48'1 0.6
2017-Nov-18 14:12N 32°56' W 117°48'1 3.4
2017-Nov-18 14:00N 32°56' W 117°48'0 0.4
2017-Nov-18 13:30N 32°56' W 117°48'0 0.5
2017-Nov-18 12:43N 32°56' W 117°48'1 3.3
2017-Nov-18 12:28N 32°57' W 117°49'0 0.1
2017-Nov-18 11:41N 32°57' W 117°49'1 3.1
2017-Nov-18 11:30N 32°58' W 117°49'1 2.3
2017-Nov-18 10:58N 32°59' W 117°49'0 0.9
2017-Nov-18 10:27N 32°58' W 117°49'1 2.6
2017-Nov-18 10:00N 32°60' W 117°49'0 0.1
2017-Nov-18 09:30N 32°60' W 117°49'0 0.3
2017-Nov-18 09:00N 32°60' W 117°49'0 0.4
2017-Nov-18 08:30N 32°60' W 117°49'2 4.4
2017-Nov-18 08:00N 33°02' W 117°51'2 3.6
2017-Nov-18 07:30N 33°03' W 117°52'2 4.5
2017-Nov-18 07:00N 33°05' W 117°53'2 4.6
2017-Nov-18 06:30N 33°07' W 117°54'3 5.3
2017-Nov-18 06:00N 33°10' W 117°56'2 3.6
2017-Nov-18 05:30N 33°10' W 117°58'3 6.5
2017-Nov-18 05:00N 33°09' W 117°54'0 0.3
2017-Nov-18 04:30N 33°09' W 117°55'0 0.3
2017-Nov-18 03:59N 33°09' W 117°55'0 0.2
2017-Nov-18 03:29N 33°09' W 117°55'0 0.5
2017-Nov-18 02:56N 33°08' W 117°55'613.2
2017-Nov-18 02:30N 33°14' W 117°58'34 1.0
2017-Nov-16 16:39N 33°45' W 118°13'1 0.4
2017-Nov-16 14:09N 33°46' W 118°13'0 0.0
2017-Nov-16 11:44N 33°46' W 118°13'0 0.0
2017-Nov-16 11:19N 33°46' W 118°13'14 2.3
2017-Nov-16 05:07N 33°33' W 118°06'216.9
2017-Nov-16 04:59N 33°31' W 118°05'817.1
2017-Nov-16 04:30N 33°23' W 118°01'917.0
2017-Nov-16 03:57N 33°14' W 117°57'816.9
2017-Nov-16 03:30N 33°07' W 117°55'1 2.6
2017-Nov-16 03:00N 33°06' W 117°54'0 0.7
2017-Nov-16 02:31N 33°06' W 117°54'1 2.2
2017-Nov-16 02:01N 33°05' W 117°53'1 1.6
2017-Nov-16 01:31N 33°05' W 117°52'1 1.1
2017-Nov-16 01:00N 33°04' W 117°52'1 1.9
2017-Nov-16 00:30N 33°04' W 117°53'1 2.8
2017-Nov-16 00:00N 33°03' W 117°52'1 2.5
2017-Nov-15 23:30N 33°03' W 117°51'0 1.0
2017-Nov-15 23:00N 33°03' W 117°51'0 0.7
2017-Nov-15 22:30N 33°03' W 117°51'1 1.8
2017-Nov-15 22:00N 33°03' W 117°50'0 0.9
2017-Nov-15 21:30N 33°03' W 117°50'1 2.1
2017-Nov-15 21:00N 33°02' W 117°48'0 0.5
2017-Nov-15 20:30N 33°02' W 117°48'1 2.5
2017-Nov-15 20:00N 33°02' W 117°47'0 0.7
2017-Nov-15 19:30N 33°02' W 117°47'0 0.7
2017-Nov-15 19:00N 33°02' W 117°47'1 2.4
2017-Nov-15 18:30N 33°01' W 117°46'1 1.7
2017-Nov-15 18:00N 33°00' W 117°47'1 1.7
2017-Nov-15 17:30N 32°59' W 117°47'1 1.3
2017-Nov-15 17:00N 32°59' W 117°46'1 3.0
2017-Nov-15 16:30N 32°58' W 117°45'1 3.0
2017-Nov-15 16:00N 32°59' W 117°46'0 0.9
2017-Nov-15 15:30N 32°60' W 117°46'1 2.9
2017-Nov-15 15:00N 32°59' W 117°45'0 0.3
2017-Nov-15 14:22N 32°58' W 117°45'1 1.5
2017-Nov-15 13:59N 32°58' W 117°45'0 0.1
2017-Nov-15 13:27N 32°58' W 117°45'0 1.0
2017-Nov-15 12:58N 32°57' W 117°45'1 1.2
2017-Nov-15 12:30N 32°57' W 117°44'0 0.3
2017-Nov-15 12:00N 32°57' W 117°44'0 0.6
2017-Nov-15 11:20N 32°57' W 117°44'1 3.0
2017-Nov-15 10:58N 32°56' W 117°43'2 4.3
2017-Nov-15 10:30N 32°56' W 117°41'1 1.3
2017-Nov-15 10:00N 32°56' W 117°40'0 0.4
2017-Nov-15 09:30N 32°56' W 117°40'1 2.0
2017-Nov-15 09:00N 32°56' W 117°41'1 2.5
2017-Nov-15 08:30N 32°54' W 117°41'0 0.6
2017-Nov-15 08:00N 32°55' W 117°41'0 0.6
2017-Nov-15 07:30N 32°55' W 117°41'0 0.6
2017-Nov-15 07:00N 32°55' W 117°41'1 1.2
2017-Nov-15 06:28N 32°55' W 117°42'2 3.5
2017-Nov-15 06:00N 32°56' W 117°44'2 3.6
2017-Nov-15 05:30N 32°57' W 117°45'2 3.2
2017-Nov-15 05:00N 32°58' W 117°47'2 4.1
2017-Nov-15 04:30N 32°60' W 117°48'2 4.6
2017-Nov-15 04:00N 33°02' W 117°50'3 5.0
2017-Nov-15 03:30N 33°04' W 117°52'3 5.2
2017-Nov-15 03:00N 33°06' W 117°54'3 5.6
2017-Nov-15 02:30N 33°08' W 117°56'3 5.6
2017-Nov-15 02:00N 33°10' W 117°58'1 1.5
2017-Nov-15 01:30N 33°11' W 117°58'3 5.0
2017-Nov-15 01:00N 33°10' W 117°55'1 2.2
2017-Nov-15 00:30N 33°11' W 117°55'1117.9
2017-Nov-14 23:52N 33°22' W 118°01'617.8
2017-Nov-14 23:31N 33°27' W 118°03'  
Track history (hours):
 
Tides and Currents Weather Stations Pressure Air Temp Water Temp Dewpoint Dewpoint Depression Visibility Wind Speed Wind Dir Waves Ship Positions

Piper Inness

Owner: Foss Maritime Co, Seattle, WA. More information available from US FCC via Universal Licensing System and Coast Guard Vessel Documentation Center.

Last reported at 2017-Nov-24 12:29 UTC. Time now 2017-Nov-24 12:53 UTC.
Position N 33°46' W 118°13'.

; draft 2 m.

Type: Other ship. MMSI: 367017440.

Date/timePositionNaut miles runAvg speedWind from/ knotsBaromVisibWave heightAir tempDewpointWater temp
2017-Nov-24 12:29N 33°46' W 118°13'0 0.0
2017-Nov-24 11:58N 33°46' W 118°13'0 0.0
2017-Nov-24 11:30N 33°46' W 118°13'0 0.0
2017-Nov-24 10:59N 33°46' W 118°13'0 0.0
2017-Nov-24 10:29N 33°46' W 118°13'0 0.0
2017-Nov-24 09:59N 33°46' W 118°13'0 0.0
2017-Nov-24 09:25N 33°46' W 118°13'0 0.0
2017-Nov-24 09:00N 33°46' W 118°13'0 0.0
2017-Nov-24 08:26N 33°46' W 118°13'2 3.4
2017-Nov-24 07:59N 33°45' W 118°13'714.1
2017-Nov-24 07:30N 33°39' W 118°09'917.3
2017-Nov-24 07:00N 33°31' W 118°04'2117.4
2017-Nov-24 05:47N 33°12' W 117°53'415.4
2017-Nov-24 05:30N 33°08' W 117°51'1 1.1
2017-Nov-24 05:00N 33°08' W 117°51'1 2.1
2017-Nov-24 04:29N 33°07' W 117°51'2 3.4
2017-Nov-24 04:00N 33°05' W 117°51'1 1.5
2017-Nov-24 03:31N 33°05' W 117°51'1 1.1
2017-Nov-24 03:00N 33°05' W 117°50'1 1.9
2017-Nov-24 02:30N 33°04' W 117°50'1 1.1
2017-Nov-24 02:00N 33°05' W 117°50'0 0.5
2017-Nov-24 01:30N 33°05' W 117°50'0 0.3
2017-Nov-24 01:00N 33°05' W 117°50'1 1.8
2017-Nov-24 00:30N 33°04' W 117°50'0 0.9
2017-Nov-24 00:00N 33°04' W 117°50'1 2.1
2017-Nov-23 23:30N 33°03' W 117°49'0 0.8
2017-Nov-23 23:00N 33°03' W 117°49'1 1.7
2017-Nov-23 22:26N 33°02' W 117°49'1 1.3
2017-Nov-23 22:00N 33°01' W 117°49'1 1.5
2017-Nov-23 21:29N 33°01' W 117°49'1 1.8
2017-Nov-23 21:00N 32°60' W 117°49'0 0.1
2017-Nov-23 20:29N 32°60' W 117°50'2 3.3
2017-Nov-23 20:00N 32°58' W 117°49'1 2.2
2017-Nov-23 19:30N 32°57' W 117°49'1 1.2
2017-Nov-23 19:00N 32°57' W 117°49'0 0.2
2017-Nov-23 18:30N 32°57' W 117°49'1 2.2
2017-Nov-23 18:00N 32°56' W 117°50'0 0.4
2017-Nov-23 17:28N 32°56' W 117°50'2 4.8
2017-Nov-23 16:57N 32°55' W 117°48'2 1.5
2017-Nov-23 15:22N 32°53' W 117°46'2 1.7
2017-Nov-23 14:19N 32°53' W 117°44'0 0.5
2017-Nov-23 13:59N 32°53' W 117°44'0 0.4
2017-Nov-23 13:25N 32°54' W 117°43'1 1.9
2017-Nov-23 13:00N 32°54' W 117°44'1 1.3
2017-Nov-23 12:30N 32°53' W 117°45'0 0.3
2017-Nov-23 12:00N 32°53' W 117°45'1 1.7
2017-Nov-23 11:30N 32°53' W 117°46'1 1.1
2017-Nov-23 11:00N 32°53' W 117°46'1 1.5
2017-Nov-23 10:30N 32°53' W 117°47'1 1.2
2017-Nov-23 10:00N 32°54' W 117°47'0 0.7
2017-Nov-23 09:30N 32°54' W 117°47'1 2.1
2017-Nov-23 09:00N 32°55' W 117°48'0 0.6
2017-Nov-23 08:30N 32°55' W 117°48'1 1.1
2017-Nov-23 08:00N 32°55' W 117°49'1 1.0
2017-Nov-23 07:30N 32°55' W 117°49'1 1.1
2017-Nov-23 07:00N 32°55' W 117°49'1 1.1
2017-Nov-23 06:30N 32°56' W 117°49'1 1.8
2017-Nov-23 06:00N 32°57' W 117°49'2 3.9
2017-Nov-23 05:30N 32°58' W 117°50'2 4.5
2017-Nov-23 05:00N 33°00' W 117°51'3 5.3
2017-Nov-23 04:30N 33°03' W 117°53'3 5.2
2017-Nov-23 04:00N 33°05' W 117°54'2 4.3
2017-Nov-23 03:30N 33°07' W 117°56'3 6.3
2017-Nov-23 03:00N 33°10' W 117°58'1 1.7
2017-Nov-23 02:30N 33°09' W 117°57'0 0.2
2017-Nov-23 02:00N 33°09' W 117°57'714.0
2017-Nov-23 01:30N 33°16' W 117°58'816.9
2017-Nov-23 01:00N 33°24' W 118°01'917.1
2017-Nov-23 00:30N 33°32' W 118°05'  
2017-Nov-20 00:30N 33°43' W 118°11'4 0.2
2017-Nov-19 07:34N 33°46' W 118°13'0 0.0
2017-Nov-19 07:30N 33°46' W 118°13'1 0.3
2017-Nov-19 05:33N 33°46' W 118°13'1110.4
2017-Nov-19 04:29N 33°36' W 118°08'2216.9
2017-Nov-19 03:09N 33°15' W 117°57'216.7
2017-Nov-19 03:01N 33°13' W 117°56'816.6
2017-Nov-19 02:30N 33°05' W 117°53'2 4.5
2017-Nov-19 02:00N 33°03' W 117°52'0 0.7
2017-Nov-19 01:30N 33°03' W 117°52'0 0.9
2017-Nov-19 01:00N 33°04' W 117°52'0 0.5
2017-Nov-19 00:30N 33°03' W 117°52'1 2.5
2017-Nov-19 00:00N 33°02' W 117°52'1 1.8
2017-Nov-18 23:30N 33°01' W 117°51'1 2.7
2017-Nov-18 23:00N 33°00' W 117°51'0 0.1
2017-Nov-18 22:30N 33°00' W 117°51'0 0.5
2017-Nov-18 22:00N 33°00' W 117°51'0 0.5
2017-Nov-18 21:30N 33°00' W 117°51'1 1.8
2017-Nov-18 21:00N 32°59' W 117°50'1 1.1
2017-Nov-18 20:30N 32°59' W 117°50'1 1.5
2017-Nov-18 20:00N 32°59' W 117°50'1 1.4
2017-Nov-18 19:25N 32°58' W 117°49'0 0.3
2017-Nov-18 19:00N 32°58' W 117°49'1 2.1
2017-Nov-18 18:27N 32°57' W 117°49'1 1.3
2017-Nov-18 17:46N 32°56' W 117°49'0 0.5
2017-Nov-18 17:29N 32°56' W 117°49'1 1.5
2017-Nov-18 16:48N 32°56' W 117°48'0 1.0
2017-Nov-18 16:26N 32°56' W 117°48'1 3.4
2017-Nov-18 16:00N 32°54' W 117°48'1 0.6
2017-Nov-18 14:12N 32°56' W 117°48'1 3.4
2017-Nov-18 14:00N 32°56' W 117°48'0 0.4
2017-Nov-18 13:30N 32°56' W 117°48'0 0.5
2017-Nov-18 12:43N 32°56' W 117°48'1 3.3
2017-Nov-18 12:28N 32°57' W 117°49'0 0.1
2017-Nov-18 11:41N 32°57' W 117°49'1 3.1
2017-Nov-18 11:30N 32°58' W 117°49'1 2.3
2017-Nov-18 10:58N 32°59' W 117°49'0 0.9
2017-Nov-18 10:27N 32°58' W 117°49'1 2.6
2017-Nov-18 10:00N 32°60' W 117°49'0 0.1
2017-Nov-18 09:30N 32°60' W 117°49'0 0.3
2017-Nov-18 09:00N 32°60' W 117°49'0 0.4
2017-Nov-18 08:30N 32°60' W 117°49'2 4.4
2017-Nov-18 08:00N 33°02' W 117°51'2 3.6
2017-Nov-18 07:30N 33°03' W 117°52'2 4.5
2017-Nov-18 07:00N 33°05' W 117°53'2 4.6
2017-Nov-18 06:30N 33°07' W 117°54'3 5.3
2017-Nov-18 06:00N 33°10' W 117°56'2 3.6
2017-Nov-18 05:30N 33°10' W 117°58'3 6.5
2017-Nov-18 05:00N 33°09' W 117°54'0 0.3
2017-Nov-18 04:30N 33°09' W 117°55'0 0.3
2017-Nov-18 03:59N 33°09' W 117°55'0 0.2
2017-Nov-18 03:29N 33°09' W 117°55'0 0.5
2017-Nov-18 02:56N 33°08' W 117°55'613.2
2017-Nov-18 02:30N 33°14' W 117°58'34 1.0
2017-Nov-16 16:39N 33°45' W 118°13'1 0.4
2017-Nov-16 14:09N 33°46' W 118°13'0 0.0
2017-Nov-16 11:44N 33°46' W 118°13'0 0.0
2017-Nov-16 11:19N 33°46' W 118°13'14 2.3
2017-Nov-16 05:07N 33°33' W 118°06'216.9
2017-Nov-16 04:59N 33°31' W 118°05'817.1
2017-Nov-16 04:30N 33°23' W 118°01'917.0
2017-Nov-16 03:57N 33°14' W 117°57'816.9
2017-Nov-16 03:30N 33°07' W 117°55'1 2.6
2017-Nov-16 03:00N 33°06' W 117°54'0 0.7
2017-Nov-16 02:31N 33°06' W 117°54'1 2.2
2017-Nov-16 02:01N 33°05' W 117°53'1 1.6
2017-Nov-16 01:31N 33°05' W 117°52'1 1.1
2017-Nov-16 01:00N 33°04' W 117°52'1 1.9
2017-Nov-16 00:30N 33°04' W 117°53'1 2.8
2017-Nov-16 00:00N 33°03' W 117°52'1 2.5
2017-Nov-15 23:30N 33°03' W 117°51'0 1.0
2017-Nov-15 23:00N 33°03' W 117°51'0 0.7
2017-Nov-15 22:30N 33°03' W 117°51'1 1.8
2017-Nov-15 22:00N 33°03' W 117°50'0 0.9
2017-Nov-15 21:30N 33°03' W 117°50'1 2.1
2017-Nov-15 21:00N 33°02' W 117°48'0 0.5
2017-Nov-15 20:30N 33°02' W 117°48'1 2.5
2017-Nov-15 20:00N 33°02' W 117°47'0 0.7
2017-Nov-15 19:30N 33°02' W 117°47'0 0.7
2017-Nov-15 19:00N 33°02' W 117°47'1 2.4
2017-Nov-15 18:30N 33°01' W 117°46'1 1.7
2017-Nov-15 18:00N 33°00' W 117°47'1 1.7
2017-Nov-15 17:30N 32°59' W 117°47'1 1.3
2017-Nov-15 17:00N 32°59' W 117°46'1 3.0
2017-Nov-15 16:30N 32°58' W 117°45'1 3.0
2017-Nov-15 16:00N 32°59' W 117°46'0 0.9
2017-Nov-15 15:30N 32°60' W 117°46'1 2.9
2017-Nov-15 15:00N 32°59' W 117°45'0 0.3
2017-Nov-15 14:22N 32°58' W 117°45'1 1.5
2017-Nov-15 13:59N 32°58' W 117°45'0 0.1
2017-Nov-15 13:27N 32°58' W 117°45'0 1.0
2017-Nov-15 12:58N 32°57' W 117°45'1 1.2
2017-Nov-15 12:30N 32°57' W 117°44'0 0.3
2017-Nov-15 12:00N 32°57' W 117°44'0 0.6
2017-Nov-15 11:20N 32°57' W 117°44'1 3.0
2017-Nov-15 10:58N 32°56' W 117°43'2 4.3
2017-Nov-15 10:30N 32°56' W 117°41'1 1.3
2017-Nov-15 10:00N 32°56' W 117°40'0 0.4
2017-Nov-15 09:30N 32°56' W 117°40'1 2.0
2017-Nov-15 09:00N 32°56' W 117°41'1 2.5
2017-Nov-15 08:30N 32°54' W 117°41'0 0.6
2017-Nov-15 08:00N 32°55' W 117°41'0 0.6
2017-Nov-15 07:30N 32°55' W 117°41'0 0.6
2017-Nov-15 07:00N 32°55' W 117°41'1 1.2
2017-Nov-15 06:28N 32°55' W 117°42'2 3.5
2017-Nov-15 06:00N 32°56' W 117°44'2 3.6
2017-Nov-15 05:30N 32°57' W 117°45'2 3.2
2017-Nov-15 05:00N 32°58' W 117°47'2 4.1
2017-Nov-15 04:30N 32°60' W 117°48'2 4.6
2017-Nov-15 04:00N 33°02' W 117°50'3 5.0
2017-Nov-15 03:30N 33°04' W 117°52'3 5.2
2017-Nov-15 03:00N 33°06' W 117°54'3 5.6
2017-Nov-15 02:30N 33°08' W 117°56'3 5.6
2017-Nov-15 02:00N 33°10' W 117°58'1 1.5
2017-Nov-15 01:30N 33°11' W 117°58'3 5.0
2017-Nov-15 01:00N 33°10' W 117°55'1 2.2
2017-Nov-15 00:30N 33°11' W 117°55'1117.9
2017-Nov-14 23:52N 33°22' W 118°01'617.8
2017-Nov-14 23:31N 33°27' W 118°03'  

Dump ship's entire track history